ZSMUL FZAA-FZEA

Flight info

Callsign ZSMUL
Flight time N/A
Altitude 17000
Route GUSAR4A GUSAR V30 EMVOT OVRI1C
Aircraft DC6/M-SDE1FGHIRWXY/S

Departure

Time 2026-05-05 17:32
Airport Ndjili International Airport (FZAA)

Arrival

Time N/A
Airport Mbandaka Airport (FZEA)
Time Latitude Longitude Altitude Speed Heading
2026-05-05 17:03 -4.38899 15.44500 1010 ft 0 kts 198°
2026-05-05 17:21 -4.38876 15.44505 988 ft 4 kts 172°
2026-05-05 17:21 -4.38859 15.44498 1019 ft 4 kts 91°
2026-05-05 17:22 -4.38859 15.44491 1014 ft 0 kts 64°
2026-05-05 17:26 -4.38859 15.44492 1010 ft 0 kts 63°
2026-05-05 17:26 -4.38858 15.44494 1010 ft 1 kts 60°
2026-05-05 17:26 -4.38851 15.44503 1010 ft 3 kts 47°
2026-05-05 17:26 -4.38834 15.44518 1010 ft 4 kts 30°
2026-05-05 17:27 -4.38806 15.44528 1010 ft 5 kts 18°
2026-05-05 17:27 -4.38771 15.44540 1011 ft 6 kts 23°
2026-05-05 17:27 -4.38735 15.44565 1011 ft 7 kts 43°
2026-05-05 17:27 -4.38703 15.44604 1011 ft 8 kts 57°
2026-05-05 17:28 -4.38671 15.44654 1011 ft 9 kts 57°
2026-05-05 17:28 -4.38633 15.44712 1011 ft 11 kts 56°
2026-05-05 17:28 -4.38589 15.44777 1011 ft 12 kts 56°
2026-05-05 17:28 -4.38542 15.44849 1011 ft 12 kts 57°
2026-05-05 17:29 -4.38503 15.44907 1011 ft 8 kts 40°
2026-05-05 17:29 -4.38464 15.44914 1011 ft 4 kts 344°
2026-05-05 17:29 -4.38439 15.44901 1011 ft 5 kts 328°
2026-05-05 17:29 -4.38397 15.44874 1012 ft 9 kts 326°
2026-05-05 17:30 -4.38355 15.44844 1012 ft 6 kts 315°
2026-05-05 17:30 -4.38343 15.44815 1012 ft 5 kts 267°
2026-05-05 17:30 -4.38371 15.44765 1012 ft 19 kts 237°
2026-05-05 17:30 -4.38518 15.44536 1013 ft 58 kts 237°
2026-05-05 17:31 -4.38805 15.44094 1009 ft 92 kts 237°
2026-05-05 17:31 -4.39193 15.43494 1045 ft 112 kts 236°
2026-05-05 17:31 -4.39637 15.42814 1138 ft 121 kts 237°
2026-05-05 17:31 -4.40099 15.42088 1270 ft 127 kts 238°
2026-05-05 17:32 -4.40571 15.41298 1372 ft 137 kts 240°
2026-05-05 17:32 -4.41052 15.40434 1516 ft 147 kts 241°
2026-05-05 17:32 -4.41574 15.39524 1681 ft 153 kts 241°
2026-05-05 17:32 -4.42133 15.38612 1881 ft 153 kts 236°
2026-05-05 17:33 -4.42774 15.37757 2007 ft 154 kts 233°
2026-05-05 17:33 -4.43421 15.36908 2126 ft 158 kts 234°
2026-05-05 17:33 -4.44065 15.36009 2276 ft 160 kts 234°
2026-05-05 17:33 -4.44712 15.35096 2430 ft 162 kts 234°
2026-05-05 17:34 -4.45359 15.34168 2570 ft 163 kts 236°
2026-05-05 17:34 -4.46238 15.33445 2596 ft 170 kts 202°
2026-05-05 17:34 -4.47426 15.33368 2681 ft 176 kts 168°
2026-05-05 17:34 -4.48492 15.33986 2772 ft 182 kts 135°
2026-05-05 17:35 -4.49074 15.35112 2901 ft 186 kts 103°
2026-05-05 17:35 -4.48976 15.36403 3043 ft 190 kts 70°
2026-05-05 17:35 -4.48229 15.37454 3180 ft 190 kts 38°
2026-05-05 17:35 -4.47043 15.37982 3308 ft 187 kts
2026-05-05 17:36 -4.45769 15.38180 3492 ft 185 kts 12°
2026-05-05 17:36 -4.44584 15.38684 3637 ft 187 kts 32°
2026-05-05 17:36 -4.43541 15.39452 3806 ft 186 kts 36°
2026-05-05 17:36 -4.42498 15.40219 3965 ft 186 kts 35°
2026-05-05 17:37 -4.41452 15.40974 4113 ft 185 kts 35°
2026-05-05 17:37 -4.40761 15.41477 4206 ft 185 kts 36°
2026-05-05 17:37 -4.39337 15.42411 4412 ft 184 kts 31°
2026-05-05 17:37 -4.38270 15.43118 4561 ft 184 kts 34°
2026-05-05 17:38 -4.37203 15.43829 4706 ft 184 kts 32°
2026-05-05 17:38 -4.36129 15.44526 4836 ft 184 kts 32°
2026-05-05 17:38 -4.35055 15.45224 4962 ft 184 kts 33°
2026-05-05 17:38 -4.33983 15.45921 5097 ft 184 kts 33°
2026-05-05 17:39 -4.32909 15.46618 5227 ft 184 kts 33°
2026-05-05 17:39 -4.32201 15.47078 5316 ft 183 kts 33°
2026-05-05 17:39 -4.30784 15.47999 5480 ft 183 kts 33°
2026-05-05 17:39 -4.29718 15.48692 5602 ft 183 kts 33°
2026-05-05 17:40 -4.28653 15.49383 5715 ft 182 kts 33°
2026-05-05 17:40 -4.27591 15.50074 5834 ft 182 kts 34°
2026-05-05 17:40 -4.26533 15.50761 5958 ft 181 kts 34°
2026-05-05 17:40 -4.25478 15.51446 6070 ft 181 kts 34°
2026-05-05 17:41 -4.24780 15.51899 6146 ft 180 kts 34°
2026-05-05 17:41 -4.23730 15.52581 6251 ft 180 kts 34°
2026-05-05 17:41 -4.22342 15.53481 6383 ft 179 kts 34°
2026-05-05 17:41 -4.21298 15.54159 6469 ft 179 kts 34°
2026-05-05 17:42 -4.20254 15.54836 6570 ft 179 kts 34°
2026-05-05 17:42 -4.19203 15.55517 6678 ft 181 kts 34°
2026-05-05 17:42 -4.18143 15.56205 6805 ft 183 kts 34°
2026-05-05 17:42 -4.17435 15.56664 6895 ft 184 kts 34°
2026-05-05 17:43 -4.16360 15.57361 7027 ft 185 kts 34°
2026-05-05 17:43 -4.15280 15.58063 7167 ft 185 kts 34°
2026-05-05 17:43 -4.14195 15.58766 7310 ft 186 kts 34°
2026-05-05 17:43 -4.13108 15.59470 7448 ft 186 kts 33°
2026-05-05 17:44 -4.11665 15.60406 7644 ft 187 kts 33°
2026-05-05 17:44 -4.10930 15.60884 7743 ft 187 kts 33°
2026-05-05 17:44 -4.09840 15.61592 7879 ft 187 kts 33°
2026-05-05 17:44 -4.08765 15.62287 8009 ft 187 kts 33°
2026-05-05 17:45 -4.07674 15.62995 8143 ft 187 kts 33°
2026-05-05 17:45 -4.06588 15.63700 8279 ft 186 kts 33°
2026-05-05 17:45 -4.05499 15.64405 8407 ft 186 kts 33°
2026-05-05 17:45 -4.04413 15.65111 8527 ft 186 kts 33°
2026-05-05 17:46 -4.03325 15.65815 8652 ft 186 kts 33°
2026-05-05 17:46 -4.02238 15.66520 8775 ft 186 kts 33°
2026-05-05 17:46 -4.01151 15.67225 8897 ft 186 kts 33°
2026-05-05 17:46 -4.00066 15.67928 9017 ft 186 kts 33°
2026-05-05 17:47 -3.98995 15.68623 9115 ft 186 kts 33°
2026-05-05 17:47 -3.97908 15.69327 9216 ft 186 kts 33°
2026-05-05 17:47 -3.96821 15.70032 9344 ft 187 kts 33°
2026-05-05 17:47 -3.95724 15.70743 9474 ft 188 kts 32°
2026-05-05 17:48 -3.94622 15.71458 9611 ft 189 kts 33°
2026-05-05 17:48 -3.93513 15.72177 9752 ft 190 kts 32°
2026-05-05 17:48 -3.92400 15.72897 9883 ft 191 kts 33°
2026-05-05 17:48 -3.91303 15.73611 10002 ft 191 kts 32°
2026-05-05 17:49 -3.90185 15.74333 10127 ft 191 kts 32°
2026-05-05 17:49 -3.89068 15.75059 10248 ft 191 kts 32°
2026-05-05 17:49 -3.87948 15.75783 10375 ft 192 kts 32°
2026-05-05 17:49 -3.86830 15.76508 10493 ft 192 kts 32°
2026-05-05 17:50 -3.85711 15.77234 10617 ft 192 kts 32°
2026-05-05 17:50 -3.84591 15.77960 10729 ft 192 kts 32°
2026-05-05 17:50 -3.83471 15.78684 10845 ft 192 kts 32°
2026-05-05 17:50 -3.82353 15.79410 10962 ft 192 kts 32°
2026-05-05 17:51 -3.81248 15.80126 11062 ft 192 kts 32°
2026-05-05 17:51 -3.80125 15.80854 11180 ft 193 kts 32°
2026-05-05 17:51 -3.78997 15.81584 11303 ft 193 kts 32°
2026-05-05 17:51 -3.77865 15.82317 11429 ft 194 kts 32°
2026-05-05 17:52 -3.76732 15.83052 11556 ft 194 kts 32°
2026-05-05 17:52 -3.75596 15.83788 11690 ft 195 kts 32°
2026-05-05 17:52 -3.74460 15.84523 11822 ft 195 kts 32°
2026-05-05 17:52 -3.73323 15.85262 11948 ft 195 kts 32°
2026-05-05 17:53 -3.72201 15.85987 12073 ft 195 kts 32°
2026-05-05 17:53 -3.71067 15.86724 12194 ft 194 kts 32°
2026-05-05 17:53 -3.69931 15.87459 12318 ft 194 kts 32°
2026-05-05 17:53 -3.68796 15.88193 12439 ft 194 kts 32°
2026-05-05 17:54 -3.67664 15.88927 12549 ft 194 kts 32°
2026-05-05 17:54 -3.66531 15.89660 12671 ft 194 kts 32°
2026-05-05 17:54 -3.65401 15.90393 12780 ft 194 kts 32°
2026-05-05 17:54 -3.64270 15.91125 12876 ft 194 kts 32°
2026-05-05 17:55 -3.63154 15.91848 12980 ft 194 kts 32°
2026-05-05 17:55 -3.62024 15.92579 13083 ft 193 kts 32°
2026-05-05 17:55 -3.60895 15.93312 13175 ft 193 kts 32°
2026-05-05 17:55 -3.59765 15.94042 13265 ft 193 kts 32°
2026-05-05 17:56 -3.58638 15.94774 13368 ft 193 kts 32°
2026-05-05 17:56 -3.57510 15.95503 13465 ft 193 kts 32°
2026-05-05 17:56 -3.56382 15.96234 13542 ft 193 kts 32°
2026-05-05 17:56 -3.55254 15.96964 13635 ft 193 kts 32°
2026-05-05 17:57 -3.54127 15.97695 13712 ft 193 kts 32°
2026-05-05 17:57 -3.53008 15.98418 13794 ft 195 kts 32°
2026-05-05 17:57 -3.51866 15.99158 13901 ft 196 kts 32°
2026-05-05 17:57 -3.50716 15.99903 13996 ft 197 kts 32°
2026-05-05 17:58 -3.49562 16.00650 14102 ft 198 kts 32°
2026-05-05 17:58 -3.48405 16.01400 14209 ft 198 kts 32°
2026-05-05 17:58 -3.47244 16.02150 14318 ft 199 kts 32°
2026-05-05 17:58 -3.46082 16.02904 14420 ft 199 kts 32°
2026-05-05 17:59 -3.44933 16.03646 14518 ft 199 kts 32°
2026-05-05 17:59 -3.43769 16.04402 14624 ft 200 kts 32°
2026-05-05 17:59 -3.42601 16.05156 14730 ft 200 kts 32°
2026-05-05 17:59 -3.41434 16.05913 14824 ft 200 kts 32°
2026-05-05 18:00 -3.40265 16.06668 14920 ft 200 kts 32°
2026-05-05 18:00 -3.39097 16.07425 15017 ft 200 kts 32°
2026-05-05 18:00 -3.37927 16.08181 15103 ft 200 kts 32°
2026-05-05 18:00 -3.36758 16.08939 15194 ft 200 kts 32°
2026-05-05 18:01 -3.35587 16.09696 15288 ft 200 kts 32°
2026-05-05 18:01 -3.34433 16.10443 15372 ft 200 kts 32°
2026-05-05 18:01 -3.33262 16.11201 15459 ft 200 kts 32°
2026-05-05 18:01 -3.32091 16.11959 15543 ft 200 kts 32°
2026-05-05 18:02 -3.30921 16.12718 15629 ft 201 kts 32°
2026-05-05 18:02 -3.29748 16.13473 15712 ft 201 kts 31°
2026-05-05 18:02 -3.28575 16.14227 15788 ft 201 kts 32°
2026-05-05 18:02 -3.27400 16.14985 15868 ft 201 kts 32°
2026-05-05 18:03 -3.26228 16.15740 15947 ft 201 kts 32°
2026-05-05 18:03 -3.25054 16.16495 16024 ft 201 kts 32°
2026-05-05 18:03 -3.23893 16.17245 16040 ft 203 kts 32°
2026-05-05 18:03 -3.22703 16.18009 16049 ft 204 kts 31°